Location: Landrethun
(50.8472°N, 1.7837°E)
Time: 11:14:43
(UTC+00:00)

Daily predictions for brighter satellites

Satellite Brightness Start Highest point End
(mag) Time Altitude Azimuth Time Altitude Azimuth Time Altitude Azimuth
Spot 2 Rocket 3.7 20:03:37 10° SE 20:08:30 56° ENE 20:13:26 10° N
Cosmos 1725 Rocket 4.0 20:03:52 10° S 20:10:06 75° E 20:16:20 10° NNE
Cosmos 2333 Rocket 2.9 20:04:43 10° NNW 20:10:10 44° NE 20:15:38 10° ESE
ATLAS 3B R/B 4.3 20:03:52 10° NW 20:10:42 35° WSW 20:17:09 10° S
Cosmos 1833 Rocket 4.4 20:06:44 10° WSW 20:11:57 39° NW 20:17:14 10° NNE
ERS-1 Rocket 3.3 20:09:32 10° S 20:14:31 70° WSW 20:19:34 10° NNW
Tsikada Rocket 4.0 20:11:35 10° N 20:17:47 72° ENE 20:23:54 10° SSE
Cosmos 2360 Rocket 3.2 20:18:46 10° NNW 20:24:00 36° NE 20:29:10 10° ESE
Cosmos 2016 Rocket 4.0 20:18:27 10° S 20:24:43 86° E 20:30:55 10° N
Cosmos 1461 3.6 20:22:57 10° S 20:25:59 24° ESE 20:29:00 10° ENE
CZ-4B R/B 3.6 20:22:00 10° S 20:27:38 68° WSW 20:33:14 10° NNW
CZ-4C R/B 2.8 20:25:05 10° WSW 20:29:26 55° NW 20:35:05 10° NE
CZ-4B R/B 4.2 20:25:49 10° SE 20:30:09 36° ENE 20:34:35 10° N
Cosmos 1992 Rocket 4.1 20:25:46 10° S 20:30:50 55° ESE 20:35:56 10° NNE
YAOGAN 11 4.4 20:29:36 10° NNE 20:33:55 50° E 20:38:16 10° S
ISS -3.7 20:32:46 10° W 20:36:07 84° N 20:39:29 10° E
Cosmos 2219 Rocket 3.5 20:32:19 10° NNW 20:37:19 31° NE 20:42:18 10° ESE
Cosmos 1437 Rocket 3.3 20:36:45 10° SSE 20:39:57 32° E 20:43:12 10° NNE
SL-08 R/B 3.4 20:39:25 10° NNE 20:44:16 90° NW 20:49:01 10° SSW
DEBRIS 3.2 20:43:05 10° WSW 20:46:02 69° SSE 20:54:33 10° E
Cosmos 1626 Rocket 3.5 20:42:13 10° N 20:46:36 81° ENE 20:51:00 10° SSE
Cosmos 1743 4.5 20:44:43 10° NW 20:47:08 22° W 20:49:31 10° SW
Cosmos 2098 Rocket 4.2 20:44:22 12° SE 20:47:55 27° E 20:51:28 10° NNE
NOSS 3-3 (A) 3.7 20:43:44 10° SW 20:48:57 80° SE 20:55:17 10° NE
Terra 3.2 20:47:56 10° SSW 20:52:14 36° W 20:56:35 10° NNW
Cosmos 2151 2.9 20:50:29 10° N 20:54:37 72° E 20:58:09 13° SSE
Cosmos 2322 Rocket 2.5 20:50:26 10° NNW 20:56:02 57° NE 21:00:46 15° SE
Helios 1A Rocket 4.3 20:53:20 10° N 20:56:09 30° WNW 20:58:57 10° SW
Cosmos 1486 Rocket 4.3 20:51:05 10° NNW 20:56:17 58° ENE 21:00:35 15° SE
Cosmos 1607 4.4 20:52:02 10° SW 20:58:10 68° NW 21:04:28 10° NE
IRS-1C Rocket 4.3 20:53:40 13° SSE 20:58:15 60° ENE 21:03:27 10° N
Cosmos 909 Rocket 4.0 20:53:05 10° SW 20:59:23 85° SE 21:05:59 10° NE
Cosmos 2061 Rocket 4.1 20:53:33 10° S 20:59:47 83° W 21:06:09 10° N
Cosmos 2082 Rocket 2.7 20:55:24 10° SW 21:01:05 65° NW 21:06:47 10° NNE
USA 306 2.7 20:59:41 10° W 21:02:35 41° NNW 21:04:29 10° ENE
CZ-4B R/B 2.4 21:09:42 18° SSE 21:12:09 87° W 21:15:39 10° NNW
USA 186 3.0 21:11:05 10° SSW 21:13:31 29° W 21:16:00 10° NNW
Okean O Rocket 2.7 21:11:50 10° SSW 21:15:52 39° W 21:19:56 10° NNW
Cosmos 1805 2.8 21:17:21 10° N 21:20:37 68° ENE 21:22:21 25° SSE
NOSS 3-3 (C) 3.9 21:15:33 10° SW 21:20:53 81° NW 21:27:23 10° NE
Cosmos 2278 3.8 21:16:22 10° NNW 21:22:06 76° WSW 21:26:23 18° SSE
Meteor 1-5 Rocket 4.3 21:19:14 10° N 21:24:59 75° ENE 21:29:22 19° SSE
COSMOS 2428 4.3 21:20:16 10° NNW 21:25:03 27° NE 21:29:49 10° E
SL-16 R/B 2.6 21:21:01 10° NW 21:26:34 57° WSW 21:30:55 17° S
Cosmos 1544 Rocket 4.0 21:23:17 10° SSW 21:27:35 63° WNW 21:31:53 10° N
Okean 1-7 Rocket 3.6 21:23:15 10° N 21:27:44 70° ENE 21:30:35 22° SSE
CZ-2C R/B 1.8 21:27:14 32° SSE 21:28:22 80° ENE 21:31:09 10° NNW
NOSS 3 (A) 4.4 21:28:46 10° NW 21:31:01 54° SW 21:31:48 36° S
NOSS 3-4 (A) 3.9 21:26:17 10° NW 21:32:55 78° SW 21:38:39 20° SSE
NOSS 3-4 (C) 3.9 21:26:55 10° NW 21:33:34 78° SW 21:39:17 20° SSE
Cosmos-2242 4.2 21:34:03 20° ESE 21:35:22 24° E 21:38:43 10° NE
Okean-O 4.4 21:33:14 10° SSW 21:36:56 27° W 21:40:39 10° NW
Cosmos 2034 Rocket 4.4 21:32:54 19° SSE 21:37:14 50° E 21:43:18 10° NNE
Cosmos 1933 3.8 21:37:04 10° SSW 21:40:47 54° WNW 21:44:32 10° N
Ariane Rocket 3.3 21:38:06 18° S 21:41:53 63° WSW 21:46:57 10° NNW
COSMOS 2406 3.7 21:36:31 10° SW 21:42:13 65° WNW 21:47:58 10° NNE
SPOT 3 Rocket 4.3 21:41:43 14° S 21:45:55 47° W 21:50:54 10° NNW
Nadezhda 4 Rocket 4.0 21:45:45 10° N 21:51:54 82° W 21:56:13 21° S
Cosmos 2333 Rocket 3.1 21:49:10 10° NW 21:54:27 40° WSW 21:58:17 18° S
Helios 1B rocket 3.2 21:55:11 24° ESE 21:56:23 31° ENE 21:59:31 10° N
Cosmos 1763 Rocket 3.6 21:53:12 21° S 21:56:35 58° ESE 22:01:45 10° NNE
Cosmos 1825 Rocket 3.6 21:52:35 10° NNW 21:56:56 74° W 21:59:17 26° S
Cosmos 1470 4.3 21:55:04 10° NNE 21:57:22 17° ENE 21:58:12 16° E
Okean 1 2.9 21:56:18 32° S 21:57:50 81° E 22:01:26 10° NNE
Cosmos 1536 3.5 21:54:36 10° N 21:58:02 36° ENE 21:59:12 28° ESE
Cosmos 1707 2.9 21:59:51 31° E 21:59:51 31° E 22:02:16 10° NNE
Cosmos 2221 4.4 21:59:07 14° E 21:59:55 15° E 22:02:16 10° NE
Cosmos 1833 4.2 21:57:58 19° S 22:01:59 60° ESE 22:07:32 10° NE
Cosmos 1461 3.7 21:58:29 10° WSW 22:02:03 45° NW 22:05:36 10° NNE
Cosmos 1953 Rocket 3.5 21:58:39 10° N 22:03:02 77° E 22:04:56 33° SSE
Cosmos 44 3.6 21:58:23 10° NW 22:03:49 73° NE 22:06:56 25° SE
Cosmos 990 Rocket 3.9 21:58:59 10° NNW 22:04:11 87° WSW 22:06:54 29° SSE
Cosmos 2360 Rocket 2.7 22:02:42 10° NW 22:08:12 52° WSW 22:11:23 24° S
Cosmos 2195 Rocket 4.5 22:03:53 10° N 22:10:08 86° W 22:13:53 25° S
Cosmos 2322 4.3 22:04:38 10° NNW 22:10:12 50° NE 22:13:47 21° ESE
ISS -3.8 22:09:38 10° W 22:13:00 86° NNE 22:14:19 35° E
USA 290 2.4 22:12:10 29° SW 22:13:33 66° WNW 22:16:41 10° NNE
BREEZE-M DEB (TANK) 2.6 22:11:59 10° W 22:13:12 25° WSW 22:13:12 25° WSW
Cosmos 2026 Rocket 4.0 22:08:06 10° N 22:14:32 87° E 22:18:17 27° S
Cosmos 2058 Rocket 3.3 22:14:25 35° SSE 22:15:53 53° E 22:20:07 10° NNE
CZ-4C R/B 4.5 22:14:36 10° WNW 22:18:55 26° N 22:24:16 10° NE
Helios 1A 2.8 22:17:27 10° NNE 22:21:22 64° ESE 22:22:30 42° SSE
Cosmos 2219 Rocket 2.4 22:16:04 10° NW 22:21:40 64° WSW 22:24:29 30° S
Cosmos 1975 3.9 22:21:17 10° N 22:24:31 28° ENE 22:25:24 25° E
Cosmos 2098 Rocket 4.3 22:20:58 11° SW 22:25:08 37° WNW 22:28:59 10° N
KORONAS-FOTON 3.8 22:25:06 45° ESE 22:25:22 47° E 22:28:38 10° NNE
Cosmos 1076 Rocket 4.1 22:22:05 10° NNW 22:26:12 49° W 22:28:03 29° SSW
Cosmos 841 Rocket 4.5 22:28:15 27° SE 22:29:27 30° E 22:33:57 10° NE
USA 306 4.1 22:27:57 10° WNW 22:28:32 14° NW 22:28:32 14° NW
RESURS DK-1 2.8 22:27:14 10° NNW 22:31:08 51° NE 22:32:35 33° ESE
ARIANE 5 R/B 3.2 22:32:16 31° ESE 22:33:59 47° ENE 22:38:16 10° N
ALOS 2 3.4 22:33:58 28° ESE 22:35:39 41° ENE 22:39:48 10° N
Cosmos 2322 Rocket 3.5 22:34:56 10° NW 22:39:45 29° WSW 22:42:34 19° SSW
Cosmos 1766 3.4 22:42:18 10° NNW 22:45:23 44° W 22:45:46 42° WSW
Cosmos 372 Rocket 3.9 22:40:46 10° NNW 22:45:54 85° WSW 22:47:53 38° SSE
Cosmos 1271 Rocket 2.6 22:46:13 50° ESE 22:46:17 50° E 22:49:34 10° NNE
Cosmos 1842 2.7 22:47:39 64° E 22:47:39 64° E 22:50:44 10° NNE
Meteor 2-9 Rocket 4.2 22:48:13 10° N 22:53:38 73° ENE 22:55:56 36° SSE
Spot 4 3.9 22:51:57 39° SSE 22:53:42 72° ENE 22:58:30 10° N
PSLV R/B 4.3 22:51:18 10° NNE 22:55:16 36° E 22:55:59 33° ESE
Cosmos 540 Rocket 4.0 22:52:54 17° SW 22:56:51 56° WNW 23:01:55 10° NNE
Cosmos 2237 Rocket 3.0 22:53:09 10° NNW 22:58:39 46° NE 23:02:17 20° ESE
Aureole 1 Rocket 4.3 22:54:04 10° NNW 22:59:42 57° WSW 23:02:46 31° S
BREEZE-M DEB (TANK) 4.3 22:43:13 10° SW 23:00:42 69° SSE 23:04:50 10° ENE
CZ-2C R/B 3.8 22:58:57 19° ESE 23:01:52 34° ENE 23:06:30 10° N
Cosmos 1092 Rocket 4.4 22:55:55 10° NNW 23:01:53 53° W 23:05:07 27° SSW
Cosmos 1980 4.3 22:57:19 10° NNW 23:02:51 52° NE 23:06:13 23° ESE
ARGOS Delta rocket 4.2 22:59:37 10° NNE 23:04:43 58° E 23:06:31 38° SSE
Cosmos 1937 Rocket 3.4 23:02:21 10° NNW 23:07:31 83° ENE 23:09:27 39° SSE
COSMOS 2428 2.7 23:04:12 10° NNW 23:09:55 78° WSW 23:12:10 38° SSE
Geosat 4.4 23:06:31 10° NNE 23:11:27 60° NW 23:15:09 18° SW
Cosmos-2242 4.1 23:10:18 23° WSW 23:12:11 36° WNW 23:16:02 10° N
Cosmos 2227 Rocket 4.0 23:11:04 15° ESE 23:12:15 16° E 23:15:29 10° ENE
NOSS 0 Rocket 3.9 23:06:18 10° NNW 23:12:30 89° ENE 23:15:26 34° SSE
Meteor 1-11 Rocket 3.8 23:07:45 10° N 23:13:26 70° ENE 23:15:45 36° SSE
Cosmos 468 Rocket 4.2 23:10:30 27° SW 23:13:27 70° WNW 23:18:43 10° NNE
Meteor 1-10 Rocket 4.5 23:17:23 37° SSE 23:19:42 63° E 23:25:34 10° NNE
MetOp-A 4.2 23:18:10 35° SE 23:20:01 58° ENE 23:24:36 10° N
Cosmos 2263 Rocket 4.3 23:20:54 11° ESE 23:22:17 11° E 23:24:01 10° ENE
Cosmos 1812 Rocket 3.5 23:25:18 52° S 23:26:18 77° E 23:30:44 10° NNE
Cosmos 1238 Rocket 3.9 23:25:54 30° ESE 23:26:32 31° E 23:30:22 10° NNE
Helios 1B rocket 3.7 23:29:08 22° WSW 23:29:23 23° W 23:32:14 10° NW
Cosmos 1470 3.4 23:28:23 10° NNW 23:31:24 33° W 23:31:24 33° W
USA 234 3.4 23:25:29 10° ENE 23:31:50 50° SE 23:34:29 33° SSW
SeaSat 1 3.6 23:28:37 15° ESE 23:32:17 38° NE 23:36:49 10° NNW
CZ-2C R/B 3.6 23:28:02 10° NNE 23:33:40 54° E 23:35:48 36° SSE
ACS3 Solar Sail 3.3 23:29:56 10° NE 23:34:36 23° E 23:37:20 17° ESE
Meteor 1-27 Rocket 4.1 23:32:34 36° SSE 23:34:43 55° E 23:40:19 10° NNE
Helios 1B 4.4 23:30:34 10° NNE 23:34:51 83° ESE 23:35:46 54° S
NOSS 8 (E) 4.4 23:32:54 10° NW 23:35:46 60° NE 23:35:46 60° NE
Cosmos 2221 2.6 23:35:23 46° SW 23:36:24 64° WNW 23:40:35 10° N
ATLAS 2AS CENTAUR R/B 4.3 23:30:24 10° NW 23:36:29 33° NNE 23:42:32 10° E
BlueWalker 3 4.3 23:41:17 12° E 23:41:17 12° E 23:41:38 10° E
CZ-2C R/B 4.2 23:36:09 10° N 23:40:29 52° WNW 23:42:14 32° SW
Cosmos 1898 Rocket 4.1 23:35:59 10° NW 23:40:51 42° WSW 23:42:14 35° SW
Cosmos 2279 Rocket 4.4 23:37:48 27° SW 23:41:11 58° WNW 23:47:22 10° N
Cosmos 2297 Rocket 2.3 23:43:29 40° S 23:45:18 59° ESE 23:50:52 10° NE
Meteor 2-20 4.4 23:46:32 37° S 23:49:06 83° E 23:55:13 10° NNE
ISS -1.4 23:46:33 10° W 23:47:15 15° W 23:47:15 15° W
Landsat 5 4.3 23:47:24 10° NNE 23:51:08 34° E 23:51:40 32° ESE
NOSS 8 (F) 4.3 23:48:59 10° NW 23:51:35 66° NNW 23:51:35 66° NNW
SAR-Lupe-2 4.3 23:53:11 37° W 23:53:11 37° W 23:56:09 10° NNW
Meteor 2-10 Rocket 4.2 23:48:53 10° N 23:54:18 55° ENE 23:57:07 28° SE
Cosmos 1842 Rocket 4.5 23:53:33 31° ESE 23:54:34 36° E 23:58:37 10° NNE
GP-B 3.1 23:50:37 10° N 23:55:00 72° W 23:56:01 50° SSW
